Terminal Aerodrome Forecast
Issued by NWS Charleston, WV

Current Version | Previous Version | Graphics & Text | Print | Product List | Glossary On
Versions: 1 2 3 4 5 6 7 8 9 10 11 12 13 14 15 16 17 18 19 20 21 22 23 24 25
000
FTUS41 KRLX 181720
TAFPKB
TAF
KPKB 181720Z 1818/1918 24008G14KT P6SM BKN200
     FM182300 23005KT P6SM OVC110
     FM190700 VRB03KT P6SM OVC015
     FM191700 28004KT P6SM SCT020=

USA.gov is the U.S. government's official web portal to all federal, state and local government web resources and services.